[[{"header":{"parameterUnit":"m.s-1","parameterCategory":1,"la1":30.2991,"la2":30.254,"lo1":-89.0895,"lo2":-89.0444,"dy":0.0017,"dx":0.0017,"nx":28,"ny":28,"refTime":"2024-07-14T09:00:00:Z","depth":0,"parameterNumber":2,"parameterNumberName":"U-component_of_WINDS"},"data":[0,0,0,0,0,0,0,0,0,0,0,0,0,0,0,0,0,0,0,0,0,0,0,0,0,0,0,0,0,0,0,0,0,0,0,0,0,0,0,0,0,0,0,0,0,0,0,0,0,0,0,0,0,0,0,0,0,0,0.6882,0.6882,0,0.6851,0.6851,0.6851,0.6797,0.6796,0.6795,0.6795,0.6765,0.6765,0.6765,0,0,0,0,0,0,0,0,0,0,0,0,0,0.6898,0.6898,0.6882,0.6882,0.6881,0.6851,0.6851,0.685,0.6798,0.6796,0.6795,0.6794,0.6765,0.6765,0.6765,0,0,0,0,0,0,0,0,0,0,0,0,0,0.6881,0.6898,0.6882,0.6851,0.6848,0.6851,0.6851,0.685,0.6798,0.6796,0.6795,0.6794,0.6765,0.6765,0.6765,0.6797,0,0,0.6766,0.6766,0,0,0,0,0,0,0,0,0.6882,0.6881,0.6856,0.6853,0.685,0.6827,0.6845,0.6832,0.6798,0.6817,0.6795,0.6793,0.6787,0.6785,0.6783,0.6795,0.6794,0.6766,0.6766,0.6766,0.6766,0,0,0,0,0,0,0,0.6884,0.6882,0.687,0.6856,0.6852,0.684,0.6836,0.6843,0.6811,0.6815,0.6811,0.6808,0.6785,0.6783,0.6782,0.6794,0.6766,0.6766,0.6766,0.6767,0.6832,0.6834,0,0,0,0,0,0,0.6889,0.6883,0.6871,0.6869,0.6863,0.6841,0.6836,0.6836,0.6811,0.6805,0.681,0.6806,0.6783,0.6782,0.6781,0.6817,0.6766,0.6767,0.6767,0.6831,0.6833,0.6835,0,0,0,0,0,0,0.6889,0.6888,0.6872,0.6875,0.6872,0.6842,0.6842,0.6836,0.6833,0.6806,0.6801,0.6813,0.6782,0.678,0.6793,0.6815,0.6767,0.6767,0.6829,0.6831,0.6834,0.6889,0,0,0,0,0,0,0.689,0.6889,0.69,0.6876,0.6872,0.6885,0.6843,0.6836,0.6834,0.6829,0.6808,0.6803,0.6781,0.6793,0.6794,0.6814,0.6767,0.6827,0.683,0.6833,0.6885,0.6893,0.69,0,0,0,0,0,0.6891,0.6917,0.69,0.6899,0.6885,0.6886,0.6884,0.6857,0.6836,0.6847,0.683,0.6804,0.6812,0.6795,0.6795,0.6816,0.6825,0.6829,0.6833,0.6882,0.6892,0.69,0,0,0,0,0,0,0.6944,0.6913,0.6895,0.6913,0.6903,0.6877,0.689,0.6868,0.6864,0.6859,0.6826,0.6822,0.684,0.6829,0.681,0.6846,0.6815,0.6819,0.6853,0.6861,0.6869,0.6871,0.6767,0,0,0,0,0,0.6958,0.6961,0.6934,0.6953,0.6948,0.6921,0.692,0.69,0.6888,0.6884,0.6867,0.6857,0.6858,0.6859,0.6858,0.6883,0.6879,0.6898,0.6905,0.6911,0.6915,0.693,0.6938,0.6846,0.6846,0.6846,0,0,0.6987,0.697,0.6974,0.6963,0.6953,0.6957,0.6917,0.6923,0.6927,0.6885,0.6896,0.6884,0.6871,0.6891,0.6899,0.6883,0.694,0.6916,0.6921,0.6922,0.6934,0.6943,0.6951,0.6849,0.6849,0.6848,0,0,0.7042,0.7029,0.7044,0.7035,0.702,0.7001,0.7005,0.6983,0.6973,0.6984,0.6953,0.6957,0.6958,0.6951,0.6947,0.7001,0.6977,0.7001,0.704,0.7054,0.7061,0.7068,0.7088,0.7096,0.7005,0.7005,0.7005,0,0.708,0.7085,0.7055,0.7064,0.7061,0.7022,0.7038,0.7031,0.7016,0.7015,0.6997,0.6999,0.6987,0.7005,0.7019,0.7016,0.7021,0.7004,0.7063,0.7069,0.7074,0.7093,0.7101,0.7008,0.7008,0.7008,0.7007,0,0.7134,0.7138,0.7152,0.7139,0.7137,0.715,0.7122,0.7124,0.7105,0.7089,0.7101,0.7086,0.7082,0.7085,0.7066,0.7101,0.7091,0.7068,0.7037,0.7086,0.7104,0.7111,0.7013,0.7012,0.7011,0.701,0,0,0.7222,0.7192,0.7198,0.7192,0.7173,0.7176,0.7187,0.7183,0.7186,0.7177,0.7187,0.7189,0.7168,0.7164,0.7144,0.7156,0.7202,0.7132,0.7131,0.7147,0.7241,0.726,0.7268,0.7186,0.7187,0.7188,0.7243,0,0.7274,0.729,0.7264,0.7288,0.7292,0.7256,0.7266,0.7256,0.7241,0.7244,0.7228,0.7231,0.7202,0.72,0.721,0.7194,0.7221,0.719,0.7196,0.7196,0.7201,0.7277,0.7296,0.7349,0.7249,0.7251,0.7251,0,0.7336,0.7331,0.7355,0.7335,0.7336,0.7346,0.734,0.7342,0.7331,0.732,0.7316,0.7292,0.7303,0.7272,0.7287,0.7266,0.7267,0.726,0.7261,0.7262,0.7228,0.7281,0.7364,0.7373,0.7262,0.7261,0.726,0,0.74,0.7399,0.7413,0.7409,0.7386,0.7394,0.7385,0.7372,0.7371,0.7367,0.7366,0.7363,0.7362,0.7361,0.7337,0.7316,0.7356,0.7322,0.7348,0.7349,0.7359,0.7359,0.7445,0.7358,0.7358,0.7357,0.7357,0,0.7461,0.7478,0.7441,0.745,0.7468,0.7438,0.7457,0.7444,0.7433,0.744,0.7409,0.7416,0.7384,0.7388,0.737,0.7386,0.7386,0.7378,0.7373,0.7381,0.7382,0.7382,0.7378,0.736,0.7359,0.7359,0.7358,0,0.7535,0.7511,0.7525,0.7503,0.7497,0.7512,0.7493,0.7501,0.7484,0.7494,0.7494,0.7469,0.7472,0.7449,0.7447,0.7435,0.7461,0.7449,0.7465,0.7462,0.7489,0.7487,0.7579,0.759,0.7495,0.7496,0.7497,0,0.7576,0.7588,0.7567,0.7569,0.7562,0.7566,0.7565,0.7537,0.7537,0.7526,0.7536,0.7536,0.7536,0.7543,0.7525,0.7525,0.7513,0.7546,0.7513,0.7522,0.7515,0.7515,0.7517,0.7553,0.7554,0.7555,0.7556,0,0.7653,0.7641,0.7641,0.7637,0.7637,0.7633,0.7627,0.7631,0.76,0.7602,0.7605,0.7605,0.7604,0.7606,0.7602,0.7593,0.757,0.7566,0.7572,0.7581,0.759,0.7587,0.7485,0.7564,0.7563,0.7563,0.7562,0.7562,0.7712,0.7722,0.7709,0.771,0.7703,0.7698,0.7705,0.7689,0.7691,0.7688,0.7671,0.7678,0.7667,0.7659,0.7653,0.7659,0.7643,0.7652,0.7654,0.7657,0.7663,0.7589,0.7658,0.7658,0.7657,0.7657,0.7657,0,0.7788,0.7778,0.778,0.7772,0.7774,0.7751,0.7743,0.7746,0.7752,0.7744,0.7744,0.7748,0.775,0.7733,0.7732,0.774,0.773,0.7741,0.7741,0.774,0.7676,0.7671,0.775,0.775,0.775,0.775,0.775,0.775,0.7828,0.7843,0.7829,0.7841,0.7831,0.7837,0.7835,0.7831,0.7824,0.783,0.7831,0.782,0.7808,0.7807,0.7808,0.7803,0.7805,0.7821,0.7812,0.7753,0.7744,0.7735,0.7731,0.7821,0.7821,0.7875,0.7876,0.7876]},{"header":{"parameterUnit":"m.s-1","parameterCategory":1,"la1":30.2991,"la2":30.254,"lo1":-89.0895,"lo2":-89.0444,"dy":0.0017,"dx":0.0017,"nx":28,"ny":28,"refTime":"2024-07-14T09:00:00:Z","depth":0,"parameterNumber":3,"parameterNumberName":"V-component_of_WINDS"},"data":[0,0,0,0,0,0,0,0,0,0,0,0,0,0,0,0,0,0,0,0,0,0,0,0,0,0,0,0,0,0,0,0,0,0,0,0,0,0,0,0,0,0,0,0,0,0,0,0,0,0,0,0,0,0,0,0,0,0,-0.1723,-0.1723,0,-0.17,-0.17,-0.17,-0.1682,-0.1681,-0.1681,-0.1681,-0.1659,-0.1659,-0.1659,0,0,0,0,0,0,0,0,0,0,0,0,0,-0.1752,-0.1751,-0.1723,-0.1723,-0.1722,-0.17,-0.17,-0.17,-0.1682,-0.1681,-0.1681,-0.1681,-0.1659,-0.1659,-0.1658,0,0,0,0,0,0,0,0,0,0,0,0,0,-0.1735,-0.1751,-0.1723,-0.1711,-0.1709,-0.17,-0.17,-0.17,-0.1682,-0.1681,-0.1681,-0.1681,-0.166,-0.1659,-0.1658,-0.166,0,0,-0.1657,-0.1656,0,0,0,0,0,0,0,0,-0.1736,-0.1734,-0.1713,-0.1711,-0.171,-0.1693,-0.1702,-0.1687,-0.1682,-0.1692,-0.1681,-0.1681,-0.1671,-0.1669,-0.1666,-0.1659,-0.1658,-0.1657,-0.1656,-0.1656,-0.1656,0,0,0,0,0,0,0,-0.1737,-0.1735,-0.1714,-0.1712,-0.1711,-0.1707,-0.1704,-0.1699,-0.1684,-0.1691,-0.169,-0.1687,-0.167,-0.1667,-0.1665,-0.1658,-0.1657,-0.1656,-0.1656,-0.1655,-0.1653,-0.1654,0,0,0,0,0,0,-0.174,-0.1736,-0.1715,-0.1713,-0.1723,-0.1706,-0.1703,-0.1699,-0.1684,-0.1681,-0.1688,-0.1687,-0.1668,-0.1666,-0.1664,-0.1666,-0.1656,-0.1655,-0.1655,-0.1653,-0.1653,-0.1654,0,0,0,0,0,0,-0.1741,-0.1739,-0.1716,-0.1724,-0.1721,-0.1706,-0.1701,-0.1699,-0.1695,-0.1681,-0.1678,-0.1687,-0.1667,-0.1665,-0.1662,-0.1665,-0.1655,-0.1655,-0.1653,-0.1653,-0.1654,-0.167,0,0,0,0,0,0,-0.1742,-0.1739,-0.1739,-0.1724,-0.1721,-0.1713,-0.1702,-0.1699,-0.1694,-0.1692,-0.1679,-0.1677,-0.1667,-0.1663,-0.1661,-0.1664,-0.1654,-0.1652,-0.1653,-0.1653,-0.1669,-0.1671,-0.1673,0,0,0,0,0,-0.1743,-0.1744,-0.1739,-0.1737,-0.172,-0.1713,-0.1711,-0.1699,-0.1694,-0.1695,-0.1686,-0.1677,-0.1665,-0.1663,-0.1661,-0.1664,-0.1652,-0.1653,-0.1653,-0.1668,-0.1671,-0.1673,0,0,0,0,0,0,-0.176,-0.1742,-0.1736,-0.1733,-0.1725,-0.171,-0.171,-0.1702,-0.1695,-0.1694,-0.168,-0.1678,-0.1676,-0.1669,-0.1667,-0.1665,-0.1658,-0.1658,-0.167,-0.1672,-0.1673,-0.1675,-0.1654,0,0,0,0,0,-0.1763,-0.1758,-0.1743,-0.1742,-0.1738,-0.1725,-0.1721,-0.1713,-0.1704,-0.17,-0.1691,-0.1683,-0.1678,-0.1674,-0.1668,-0.1668,-0.1666,-0.1669,-0.1671,-0.1673,-0.1673,-0.1674,-0.1676,-0.1656,-0.1656,-0.1656,0,0,-0.177,-0.176,-0.1757,-0.1745,-0.1738,-0.1733,-0.1722,-0.1718,-0.1714,-0.17,-0.1696,-0.1689,-0.1679,-0.1678,-0.1676,-0.1672,-0.1678,-0.1674,-0.1675,-0.1675,-0.1675,-0.1677,-0.1678,-0.1656,-0.1656,-0.1656,0,0,-0.178,-0.1772,-0.177,-0.1763,-0.1752,-0.1744,-0.1743,-0.173,-0.1725,-0.1721,-0.171,-0.1706,-0.1697,-0.1691,-0.1686,-0.1696,-0.1688,-0.1694,-0.1703,-0.1704,-0.1706,-0.1707,-0.1711,-0.1712,-0.1695,-0.1695,-0.1695,0,-0.179,-0.1783,-0.1771,-0.1767,-0.1762,-0.1749,-0.1748,-0.1742,-0.1729,-0.1727,-0.1722,-0.1711,-0.1703,-0.17,-0.1703,-0.1699,-0.1699,-0.1696,-0.1706,-0.1707,-0.1709,-0.1712,-0.1714,-0.1695,-0.1695,-0.1695,-0.1695,0,-0.1796,-0.1792,-0.1792,-0.178,-0.1776,-0.1773,-0.1761,-0.1758,-0.1751,-0.1743,-0.1739,-0.173,-0.1722,-0.1721,-0.1714,-0.1718,-0.1715,-0.1709,-0.1701,-0.1711,-0.1715,-0.1716,-0.1697,-0.1696,-0.1696,-0.1696,0,0,-0.1816,-0.1799,-0.1799,-0.1794,-0.1781,-0.1778,-0.1775,-0.1768,-0.1766,-0.1758,-0.1756,-0.1749,-0.1743,-0.1738,-0.173,-0.1731,-0.174,-0.1724,-0.1723,-0.1728,-0.1744,-0.175,-0.1752,-0.1734,-0.1735,-0.1735,-0.1746,0,-0.1825,-0.182,-0.1809,-0.1807,-0.1803,-0.1791,-0.1789,-0.1781,-0.1774,-0.177,-0.1762,-0.1758,-0.175,-0.1747,-0.1747,-0.1739,-0.1743,-0.1738,-0.1733,-0.1733,-0.1737,-0.1753,-0.1759,-0.177,-0.1747,-0.1747,-0.1747,0,-0.1834,-0.1828,-0.1826,-0.1814,-0.1812,-0.181,-0.1803,-0.1799,-0.1791,-0.1786,-0.1781,-0.1772,-0.177,-0.1762,-0.1759,-0.1756,-0.1754,-0.175,-0.175,-0.1749,-0.1741,-0.1754,-0.1773,-0.1774,-0.1749,-0.1749,-0.1749,0,-0.185,-0.1841,-0.1838,-0.1834,-0.1821,-0.182,-0.1815,-0.1806,-0.1802,-0.1796,-0.1794,-0.1788,-0.1784,-0.178,-0.177,-0.1766,-0.1769,-0.176,-0.1765,-0.1766,-0.1767,-0.1767,-0.1786,-0.1764,-0.1764,-0.1764,-0.1764,0,-0.1861,-0.1861,-0.1845,-0.1844,-0.1843,-0.1831,-0.1831,-0.1824,-0.1817,-0.1815,-0.1804,-0.1802,-0.1789,-0.1786,-0.1778,-0.1777,-0.1776,-0.1772,-0.177,-0.1773,-0.1774,-0.1772,-0.1771,-0.1765,-0.1765,-0.1765,-0.1765,0,-0.1879,-0.1868,-0.1865,-0.1853,-0.185,-0.185,-0.184,-0.1838,-0.1831,-0.1828,-0.1827,-0.1815,-0.1811,-0.1801,-0.1794,-0.1789,-0.1791,-0.1786,-0.1793,-0.1792,-0.1798,-0.1798,-0.1817,-0.1819,-0.1796,-0.1796,-0.1796,0,-0.1887,-0.1886,-0.1874,-0.1872,-0.1866,-0.1863,-0.1859,-0.1848,-0.1845,-0.1836,-0.1836,-0.1831,-0.1826,-0.182,-0.1812,-0.1807,-0.1803,-0.181,-0.1802,-0.1806,-0.1804,-0.1804,-0.1805,-0.1812,-0.1812,-0.1812,-0.1813,0,-0.1903,-0.1898,-0.1893,-0.1887,-0.1883,-0.1878,-0.1872,-0.187,-0.1858,-0.1855,-0.1851,-0.1847,-0.184,-0.1836,-0.183,-0.1825,-0.1817,-0.1815,-0.1816,-0.182,-0.1824,-0.1822,-0.1799,-0.1815,-0.1814,-0.1814,-0.1814,-0.1814,-0.1916,-0.1915,-0.1907,-0.1902,-0.1897,-0.1892,-0.189,-0.1882,-0.1879,-0.1872,-0.1866,-0.1863,-0.1855,-0.1846,-0.1842,-0.1839,-0.1835,-0.1836,-0.1837,-0.1837,-0.1839,-0.1824,-0.1838,-0.1838,-0.1838,-0.1838,-0.1838,0,-0.1932,-0.1926,-0.1922,-0.1914,-0.1911,-0.1904,-0.1897,-0.1895,-0.1892,-0.1886,-0.1882,-0.1877,-0.1873,-0.1864,-0.186,-0.1859,-0.1856,-0.1859,-0.1859,-0.1858,-0.1843,-0.1843,-0.1862,-0.1862,-0.1862,-0.1862,-0.1862,-0.1862,-0.194,-0.1938,-0.1933,-0.1929,-0.1923,-0.192,-0.1917,-0.1912,-0.1907,-0.1903,-0.1899,-0.1894,-0.1887,-0.1882,-0.1878,-0.1875,-0.1874,-0.1879,-0.1875,-0.1861,-0.1859,-0.1857,-0.1857,-0.1878,-0.1878,-0.1891,-0.1891,-0.1891]}]]